Location: *
(46.3500°N, 10.9000°E)
Time: 00:49:22
(UTC+00:00)

Vanguard 2 - Pass Details

Date: 25 April 2021
Orbit: 552 x 2938 km, 32.9° (Epoch: 12 May)

Event Time Altitude Azimuth Distance (km) Brightness Sun altitude
Rises 07:16:23 0° 190° (S) 6,490 12.3 30.5°
Reaches altitude 10° 07:22:52 10° 174° (S) 5,685 12.3 31.6°
Maximum altitude 07:32:43 18° 139° (SE) 5,090 12.8 33.2°
Drops below altitude 10° 07:42:14 10° 105° (ESE) 5,507 13.3 34.8°
Sets 07:48:12 0° 89° (E) 6,223 13.0 35.8°
